Centaur AC-64 - Orbit

View from above orbital plane
View from above orbital plane
View from above satellite
View from above satellite

Ground track
Ground track

The orbit data is extracted from the following two-line orbital elements,

1 15874U 85055B   13140.83590766  .00002343  00000-0  14514-2 0  3040
2 15874 023.0737 214.0403 6625710 165.3602 242.7887 03.10766874283455
Epoch (UTC): 20 May 2013 20:03:42
Eccentricity: 0.6625710
inclination: 23.0737°
perigee height: 315 km
apogee height: 26600 km
right ascension of ascending node: 214.0403°
argument of perigee: 165.3602°
revolutions per day: 3.10766874
mean anomaly at epoch: 242.7887°
orbit number at epoch: 28345

The dashed part of the orbit path shows where the satellite is in the earth's shadow,  

Developed and maintained by Chris Peat, Heavens-Above GmbH. Please read the updated FAQ before sending e-mail. Imprint. DLR